CZ-6A DEB, 54544

Orbit data source: Space-Track

CZ-6A DEB, 54544 is space debris in SSO originally from a launch on Fri, 11 Nov 2022 UTC launched from the Taiyaun Space Center, China (TSC). Debris objects in space refer to the collection of defunct objects orbiting the Earth. Examples of debris include non-operational satellites, rocket bodies, and fragments generated from explosions, collisions, or faulty payload assembly.

Loading next visibility...
Identifier
54544, 2022-151KU
Orbit
SSO
Country
Flag of CNCN / PRC
Related business
Manufacturer
SAST
Mission
Spacecraft
Bus & Motor
Unknown
Mass
Unknown
Launch date (UTC)
2022-11-11 (4 years ago)
Launch vehicle
Unknown
Launch site
Taiyaun Space Center, China (TSC)
Object type
Payload
Rocket body
Debris
Shape & HBR
Unknown shape, 0.3 m
Radar Cross Section
Medium (>0.1 m² and <1 m²)

Expand to show TLE details & history
Last TLE update: 2 days ago

TLE from 2 days ago
0 CZ-6A DEB
1 54544U 22151KU  26235.47050876  .00000145  00000-0  91891-4 0  9990
2 54544  98.7905 247.6471 0043424 162.6972 197.5695 14.17781633195258
Epoch: 2026-08-23T11:17Z
TLE epoch observation values (Epoch: 2026-08-23T11:17:31.956Z)
Latitude
0.00001°
Longitude
106.49785°
Altitude
865.644 km
Speed
7.404 km/s
True Right ascension
16h 30m 35s
True Declination
0° 00' 00"
Sunlit
Object was in daylight at epoch
Visualization orbit readout
Latitude
Unknown
Longitude
Unknown
Altitude
Unknown
Speed
Unknown
Apparent Right ascension
Unknown
Apparent Declination
Unknown
Sunlit
N/A
Visualization observer readout
Local Sidereal Time
18:12:15
Azimuth
Unknown
Elevation
Unknown
Doppler factor
Unknown
Orbital elements
Apogee altitude
861.331 km
Perigee altitude
798.73 km
Semi-major axis
7,208.167 km
Eccentricity
0.00434
Inclination
98.7905°
RAAN
247.6471°
Arg. of periapsis
162.6972°
True anomaly
197.42007°
Mean anomaly
197.5695°
Eccentric anomaly
197.49471°
Mean motion
3.54655 °/min
Orbital period
101.51 mins
BSTAR
0.000091891
Loading maneuver chart data...
Computing Atmospheric mass density...
Loading historical data...
Loading historical data...
Loading historical data...
Loading historical data...
Loading historical data...
Loading historical data...
Loading historical data...

Documentation

Showing up to 5 results
|